TimePDT,TemperatureF,Dew PointF,Humidity,Sea Level PressureIn,VisibilityMPH,Wind Direction,Wind SpeedMPH,Gust SpeedMPH,PrecipitationIn,Events,Conditions,WindDirDegrees,DateUTC
12:00 AM,46.4,46.4,100,30.19,0.8,NNW,3.5,-,N/A,,Overcast,330,2013-10-21 07:00:00
1:00 AM,46.4,46.4,100,30.19,0.6,North,3.5,-,N/A,,Mist,350,2013-10-21 08:00:00
2:00 AM,48.2,46.4,93,30.19,0.6,North,3.5,-,N/A,,Mist,10,2013-10-21 09:00:00
2:54 AM,46.4,46.4,100,30.19,0.8,North,5.8,-,N/A,,Overcast,360,2013-10-21 09:54:00
3:00 AM,46.4,46.4,100,30.19,1.0,NNW,5.8,-,N/A,,Overcast,340,2013-10-21 10:00:00
4:00 AM,46.4,46.4,100,30.19,1.0,NW,4.6,-,N/A,,Overcast,310,2013-10-21 11:00:00
5:00 AM,46,45,96,30.18,1,NNW,4.6,,,,Mist,330,2013-10-21 12:00:00
5:00 AM,46.4,44.6,93,30.18,1.0,NNW,4.6,-,N/A,,Overcast,330,2013-10-21 12:00:00
6:00 AM,44.6,44.6,100,30.17,0.8,NW,4.6,-,N/A,,Mist,310,2013-10-21 13:00:00
7:00 AM,44.6,42.8,93,30.18,0.6,NW,4.6,-,N/A,,Mist,310,2013-10-21 14:00:00
7:47 AM,44.6,42.8,93,30.19,0.6,NNW,3.5,-,N/A,,Overcast,330,2013-10-21 14:47:00
8:00 AM,44.6,42.8,93,30.19,0.5,NNW,4.6,-,N/A,Fog,Fog,330,2013-10-21 15:00:00
9:00 AM,44.6,44.6,100,30.19,0.5,North,3.5,-,N/A,Fog,Fog,10,2013-10-21 16:00:00
10:00 AM,44.6,44.6,100,30.19,0.8,NW,3.5,-,N/A,,Overcast,310,2013-10-21 17:00:00
10:06 AM,44.6,44.6,100,30.19,1.2,WNW,2.3,-,N/A,,Overcast,290,2013-10-21 17:06:00
10:27 AM,46.4,44.6,93,30.20,2.0,North,3.5,-,N/A,,Overcast,350,2013-10-21 17:27:00
10:46 AM,46.4,46.4,100,30.20,3.0,NNW,3.5,-,N/A,,Overcast,340,2013-10-21 17:46:00
11:00 AM,46,46,99,30.19,3,NW,2.3,,,,Mist,310,2013-10-21 18:00:00
11:00 AM,46.4,46.4,100,30.19,3.0,WNW,2.3,-,N/A,,Overcast,300,2013-10-21 18:00:00
11:46 AM,48.2,46.4,93,30.19,5.0,Variable,2.3,-,N/A,,Overcast,0,2013-10-21 18:46:00
12:00 PM,50.0,48.2,94,30.19,5.0,Variable,2.3,-,N/A,,Overcast,0,2013-10-21 19:00:00
12:30 PM,50.0,48.2,94,30.18,5.0,West,3.5,-,N/A,,Mostly Cloudy,280,2013-10-21 19:30:00
1:00 PM,50.0,46.4,87,30.17,15.0,West,3.5,-,N/A,,Mostly Cloudy,270,2013-10-21 20:00:00
1:20 PM,51.8,48.2,88,30.17,15.0,WSW,5.8,-,N/A,,Scattered Clouds,250,2013-10-21 20:20:00
2:00 PM,53.6,48.2,82,30.16,20.0,SW,3.5,-,N/A,,Scattered Clouds,220,2013-10-21 21:00:00
3:00 PM,55.4,50.0,82,30.14,30.0,WSW,3.5,-,N/A,,Partly Cloudy,250,2013-10-21 22:00:00
4:00 PM,55.4,50.0,82,30.13,30.0,SSW,4.6,-,N/A,,Clear,200,2013-10-21 23:00:00
5:00 PM,54,49,79,30.13,28,West,4.6,,,,,270,2013-10-22 00:00:00
5:00 PM,53.6,50.0,88,30.13,30.0,West,4.6,-,N/A,,Clear,270,2013-10-22 00:00:00
5:19 PM,53.6,48.2,82,30.12,8.0,West,4.6,-,N/A,,Clear,260,2013-10-22 00:19:00
6:00 PM,50.0,48.2,94,30.12,8.0,WNW,4.6,-,N/A,,Clear,290,2013-10-22 01:00:00
6:14 PM,50.0,48.2,94,30.12,3.0,WNW,3.5,-,N/A,,Clear,300,2013-10-22 01:14:00
7:00 PM,46.4,46.4,100,30.13,3.0,NNW,3.5,-,N/A,,Clear,330,2013-10-22 02:00:00
8:00 PM,46.4,46.4,100,30.13,2.0,West,2.3,-,N/A,,Clear,280,2013-10-22 03:00:00
8:09 PM,44.6,44.6,100,30.13,0.6,SW,3.5,-,N/A,,Clear,220,2013-10-22 03:09:00
8:16 PM,42.8,42.8,100,30.13,0.4,SW,4.6,-,N/A,Fog,Fog,230,2013-10-22 03:16:00
9:00 PM,44.6,42.8,93,30.14,0.2,SSW,2.3,-,N/A,Fog,Fog,200,2013-10-22 04:00:00
10:00 PM,44.6,44.6,100,30.14,0.2,WSW,3.5,-,N/A,Fog,Fog,240,2013-10-22 05:00:00
11:00 PM,44,43,97,30.15,0,NW,2.3,,,Fog,Partial Fog,320,2013-10-22 06:00:00
11:00 PM,44.6,42.8,93,30.15,0.2,NW,2.3,-,N/A,Fog,Fog,320,2013-10-22 06:00:00